Wind_Speed
15 16 14 14 17 14 11 12 17 20 22 20 21 21 23 23 23 24 24 23 19 23 30 31 29 29 27 27 30 27 30 30 20 16 16 15 13 10 10 13 14 16 16
12 16 17 16 18 19 16 13 19 18 19 19 22 25 25 24 22 27 24 21 19 19 29 30 30 31 30 31 37 35 29 30 27 19 19 17 14 12 12 12 12 14 14
13 15 17 15 17 15 17 12 11 15 18 20 24 25 24 24 28 25 25 22 21 21 25 30 30 33 32 31 34 39 36 25 32 25 20 19 14 12 12 12 11 11 13
8 12 19 18 14 8 10 16 12 14 17 20 22 22 24 26 20 22 21 30 23 20 20 28 29 32 34 34 33 32 34 32 31 28 24 22 16 15 14 12 10 11 9
9 16 21 18 5 11 21 13 13 17 19 19 18 18 22 21 15 15 14 16 23 20 18 22 28 30 34 35 31 33 37 33 29 26 26 26 19 17 16 13 9 8 10
14 18 14 12 16 5 14 9 11 18 22 18 16 18 20 18 14 12 11 9 16 19 16 18 24 29 30 32 31 29 35 32 31 30 27 26 18 18 15 11 8 6 6
10 13 8 11 23 8 8 7 10 20 24 22 16 18 19 19 12 12 9 10 10 13 13 14 17 22 26 30 30 31 31 27 29 32 26 17 17 16 14 12 6 4 3
14 11 12 9 10 5 5 3 16 24 18 21 17 20 21 16 10 10 8 6 4 8 11 13 14 17 22 27 29 27 29 30 26 28 25 25 17 18 13 11 12 8 4
15 8 8 14 8 8 7 5 11 16 17 18 19 19 18 19 14 9 9 4 1 4 8 11 14 14 19 25 23 28 25 26 27 27 24 22 17 17 18 17 15 12 11
9 12 10 3 7 8 9 6 9 11 17 16 18 17 13 22 17 12 12 10 4 3 3 6 8 11 15 17 21 24 25 24 28 25 26 23 25 26 25 21 16 15 15
10 10 7 6 8 6 10 8 6 9 15 15 18 17 15 16 17 10 13 12 13 8 3 1 4 6 10 17 19 21 24 28 26 28 27 23 19 22 26 13 20 16 14
9 10 5 8 3 9 13 10 19 8 10 11 17 17 15 12 10 11 14 17 11 10 8 2 2 4 6 10 16 18 22 26 26 27 26 27 26 26 26 21 20 18 17
14 9 8 4 6 8 10 11 8 8 9 12 14 15 15 13 9 3 5 8 8 9 10 3 0 4 5 4 11 13 18 21 24 25 25 25 22 25 25 22 20 16 15
12 10 8 8 7 8 11 5 2 6 9 12 12 12 12 12 11 7 4 6 8 8 4 3 3 3 4 6 6 7 17 21 18 28 24 21 23 25 25 17 21 12 16
15 18 13 10 6 5 7 6 5 9 13 11 12 11 12 10 8 7 5 7 6 6 5 5 2 1 2 7 6 4 5 4 12 15 17 16 20 21 20 17 14 18 25
11 13 13 11 6 6 5 5 6 10 13 14 16 13 11 12 10 4 3 4 2 1 3 4 4 3 4 4 8 10 12 13 16 16 12 12 13 16 25 27 22 19 19
11 11 11 12 11 9 8 11 14 14 16 16 15 17 13 14 13 8 5 4 4 2 2 5 5 5 5 5 6 8 9 11 12 12 14 17 19 19 20 17 9 9 10
10 12 14 13 13 13 13 15 18 19 18 19 15 17 17 15 15 10 7 8 5 6 6 8 9 7 5 4 3 4 6 5 6 6 7 8 9 8 8 8 10 12 14
9 12 13 14 14 15 19 22 22 21 20 20 18 17 18 16 13 10 10 9 11 11 9 11 11 10 9 8 8 8 7 8 10 10 12 13 11 14 11 13 14 15 17
12 14 15 14 16 19 21 25 27 25 22 24 21 23 20 15 14 15 14 14 14 13 13 13 12 12 13 11 12 10 10 11 10 10 10 14 13 16 15 16 18 22 23
13 14 13 15 18 21 25 25 25 21 17 18 18 23 22 16 16 15 14 13 13 14 14 18 19 19 17 15 15 16 14 11 13 13 15 17 14 19 22 21 22 24 28
11 13 15 18 21 25 26 25 20 14 10 10 15 18 17 16 21 15 17 18 19 17 18 18 18 14 17 17 16 22 24 22 18 16 16 18 21 28 26 29 27 28 36
14 16 18 20 22 23 21 15 9 6 6 7 8 9 16 16 17 18 18 19 16 12 20 16 12 14 15 22 21 16 21 21 14 15 17 21 26 23 23 25 24 32 32
16 18 19 18 16 15 12 8 5 5 4 5 8 12 14 16 18 16 12 13 14 9 11 12 13 12 12 14 18 14 13 12 13 14 16 18 21 23 22 23 25 26 28
16 15 15 16 12 7 6 5 5 4 4 4 6 8 8 9 8 10 9 11 9 10 10 10 10 10 12 16 14 14 13 11 12 15 17 20 21 22 23 25 26 25 25
14 12 11 9 4 3 1 3 6 4 3 2 2 5 3 4 7 8 4 4 4 5 5 7 10 12 12 12 13 13 13 14 16 18 18 19 20 21 22 24 26 26 23
Wind_Direction
248 264 283 303 272 296 301 314 317 317 319 317 317 310 305 298 295 292 284 277 278 248 238 233 227 231 236 224 217 217 213 223 226 240 245 246 247 249 268 276 278 268 264
210 241 250 279 287 285 307 300 315 317 316 313 312 305 302 298 290 291 274 271 270 267 240 234 227 226 227 224 214 224 223 224 228 236 247 250 253 259 266 276 286 275 275
240 212 233 246 263 268 308 308 316 319 318 312 305 304 303 300 294 289 263 254 267 266 247 234 229 226 223 226 221 222 231 229 225 238 243 253 264 265 272 283 291 291 276
207 214 216 246 266 280 302 310 335 332 325 308 307 308 314 311 300 298 276 252 258 248 247 232 229 228 226 226 228 227 220 225 223 232 235 246 251 257 264 278 296 294 275
198 218 238 250 214 269 299 314 330 344 335 323 316 309 317 316 305 312 312 259 234 240 245 235 227 227 228 226 230 226 218 230 222 231 233 237 252 254 261 268 261 284 263
214 228 234 211 195 276 266 313 344 352 347 336 333 326 329 339 308 312 307 284 243 238 237 238 232 230 229 228 227 226 220 230 228 230 233 233 238 244 251 246 248 284 268
250 239 247 231 312 169 284 316 7 356 350 349 344 339 342 344 334 328 292 284 250 230 234 229 228 226 227 226 224 224 224 227 230 228 230 231 231 244 239 245 239 304 298
255 253 268 248 272 231 252 276 335 329 328 347 0 356 355 12 0 357 340 324 278 226 224 225 230 230 226 223 220 223 222 222 226 229 239 237 237 239 240 236 218 231 244
245 268 286 269 182 217 267 314 338 346 343 352 10 13 16 15 15 26 24 19 60 218 213 225 234 230 222 221 217 220 224 222 228 229 232 238 234 231 227 212 218 222 223
252 269 278 295 206 236 315 332 341 339 346 354 18 21 21 25 33 42 47 50 65 100 196 214 221 220 215 210 214 216 219 225 229 239 240 248 249 244 238 230 233 220 225
259 282 219 270 238 282 317 334 331 343 352 346 17 27 36 51 41 42 28 56 40 29 14 81 170 188 196 203 212 216 221 224 229 233 238 231 238 230 222 230 238 242 255
253 238 254 286 252 327 327 338 340 279 303 358 11 20 26 16 29 46 63 46 14 22 14 54 104 192 186 206 218 224 223 224 229 233 235 242 243 216 220 242 254 255 268
236 254 257 246 201 291 318 324 355 14 3 358 5 1 18 23 10 347 4 9 22 9 21 24 195 205 209 228 213 235 234 234 237 239 240 239 233 223 227 233 247 258 268
231 218 228 223 266 303 318 331 313 330 339 328 341 343 1 16 18 6 336 345 4 25 31 63 356 322 246 226 237 248 236 232 236 238 226 231 233 233 238 242 239 226 238
208 215 218 238 274 308 315 305 307 324 335 330 318 322 337 348 5 7 343 331 353 20 25 27 27 333 233 246 238 281 281 280 249 238 234 240 268 252 245 257 251 268 265
226 214 231 256 263 273 276 302 326 318 325 314 305 312 310 321 326 332 328 318 356 326 325 342 324 275 289 281 252 247 246 253 258 272 271 253 251 260 251 266 258 249 262
220 234 244 254 249 260 279 299 313 312 303 306 288 294 294 297 296 294 291 279 304 251 272 282 295 316 314 293 263 262 257 238 240 247 250 255 259 262 259 253 254 246 247
232 245 257 266 263 270 287 302 299 295 295 293 291 283 286 283 274 273 272 270 280 279 281 283 290 300 310 295 254 216 229 223 232 241 242 239 245 246 241 243 247 245 241
278 271 264 265 267 282 297 303 301 290 278 271 272 261 264 273 278 246 262 266 282 289 287 286 291 303 311 307 283 266 263 255 256 258 256 254 250 237 264 255 247 246 250
268 276 276 269 280 293 303 307 304 296 276 265 247 256 263 270 259 256 264 262 265 276 282 278 276 294 295 290 285 275 273 265 263 270 263 264 248 259 270 262 262 261 260
274 277 273 281 294 302 305 304 304 294 277 266 263 259 259 264 259 263 262 263 267 272 281 281 268 276 273 277 278 277 279 275 266 272 274 276 258 271 273 261 265 274 267
266 268 278 288 296 302 303 301 296 286 271 268 256 254 242 256 252 258 261 267 267 274 277 287 278 259 263 261 278 285 277 282 259 273 280 265 270 281 267 268 265 271 270
272 278 287 295 299 302 305 295 292 288 283 264 267 252 245 247 260 264 267 276 270 270 285 266 261 281 300 277 278 298 273 257 243 267 269 280 277 257 263 276 288 276 279
282 290 295 298 302 306 300 293 288 284 254 238 234 238 250 258 264 257 270 262 282 254 259 270 259 273 291 289 298 287 281 286 273 280 282 284 274 275 277 280 283 285 285
280 285 296 303 303 305 306 297 310 302 279 217 227 225 228 262 262 266 256 267 247 261 266 274 276 293 291 304 302 300 298 297 290 284 284 286 289 293 292 289 289 292 293
276 284 287 284 241 252 303 256 257 259 152 146 238 258 231 211 232 257 250 267 284 292 289 282 286 290 293 293 294 298 297 292 289 292 296 296 296 298 298 300 302 303 301
Height
3161 3159 3160 3160 3159 3161 3163 3162 3161 3160 3158 3157 3155 3152 3152 3148 3147 3144 3143 3144 3145 3146 3149 3153 3157 3160 3164 3168 3173 3178 3180 3184 3188 3191 3194 3194 3194 3197 3198 3197 3198 3198 3199
3159 3159 3158 3159 3159 3159 3160 3160 3159 3158 3156 3154 3152 3149 3146 3144 3141 3139 3138 3138 3139 3141 3142 3146 3152 3155 3160 3164 3168 3172 3177 3181 3185 3187 3190 3191 3193 3194 3195 3195 3194 3194 3194
3155 3159 3159 3157 3159 3159 3159 3158 3156 3156 3153 3150 3147 3145 3142 3138 3134 3132 3131 3132 3134 3135 3137 3141 3146 3150 3155 3159 3164 3169 3173 3178 3181 3185 3187 3188 3189 3190 3191 3191 3191 3190 3190
3157 3157 3158 3158 3159 3159 3156 3157 3155 3152 3150 3147 3143 3139 3136 3131 3127 3124 3122 3124 3127 3131 3132 3135 3140 3145 3149 3154 3160 3163 3168 3174 3178 3180 3183 3184 3186 3188 3189 3189 3188 3187 3187
3153 3154 3156 3157 3158 3159 3157 3157 3157 3151 3147 3143 3138 3135 3132 3126 3123 3120 3118 3117 3121 3126 3128 3130 3134 3139 3143 3149 3154 3158 3164 3171 3173 3175 3179 3180 3182 3184 3185 3186 3186 3184 3184
3150 3151 3154 3154 3150 3155 3156 3158 3156 3152 3145 3140 3136 3133 3128 3122 3120 3117 3116 3115 3117 3120 3123 3126 3130 3134 3138 3144 3149 3154 3159 3166 3169 3169 3172 3175 3178 3181 3182 3183 3183 3183 3183
3149 3150 3152 3150 3148 3151 3156 3157 3154 3149 3144 3140 3136 3131 3125 3120 3117 3115 3113 3113 3115 3118 3121 3124 3127 3130 3133 3139 3144 3149 3155 3161 3162 3166 3167 3169 3174 3177 3178 3179 3180 3180 3181
3145 3148 3150 3150 3150 3153 3155 3155 3153 3147 3143 3140 3135 3129 3123 3119 3117 3115 3114 3114 3114 3117 3120 3122 3125 3127 3129 3134 3140 3145 3151 3155 3160 3162 3165 3166 3170 3174 3176 3177 3178 3178 3179
3145 3147 3148 3148 3148 3152 3153 3151 3149 3144 3142 3140 3135 3129 3124 3120 3118 3117 3116 3116 3117 3118 3120 3122 3124 3124 3127 3130 3137 3142 3147 3152 3157 3159 3160 3163 3167 3170 3172 3174 3176 3177 3176
3146 3143 3143 3145 3148 3149 3148 3147 3145 3143 3141 3139 3135 3131 3127 3123 3121 3120 3120 3119 3118 3120 3121 3122 3122 3123 3125 3130 3134 3139 3144 3148 3152 3155 3158 3161 3163 3165 3170 3170 3172 3173 3174
3140 3141 3141 3141 3144 3143 3144 3144 3144 3142 3141 3140 3136 3132 3129 3127 3125 3123 3124 3123 3123 3122 3121 3121 3122 3124 3126 3129 3133 3136 3140 3145 3148 3151 3156 3156 3158 3162 3164 3163 3168 3169 3171
3140 3140 3141 3142 3142 3141 3140 3143 3141 3136 3141 3140 3137 3134 3131 3129 3128 3127 3125 3125 3125 3125 3123 3122 3123 3125 3127 3129 3132 3133 3137 3141 3144 3148 3151 3153 3153 3156 3159 3161 3163 3165 3166
3140 3141 3141 3142 3143 3141 3140 3140 3141 3141 3141 3140 3137 3136 3133 3131 3130 3129 3128 3128 3127 3125 3125 3125 3126 3127 3128 3131 3133 3135 3137 3139 3142 3144 3147 3148 3150 3151 3152 3155 3159 3160 3161
3139 3141 3140 3141 3141 3140 3139 3140 3140 3141 3140 3138 3137 3136 3134 3131 3131 3130 3129 3129 3128 3127 3126 3126 3127 3128 3130 3132 3132 3133 3133 3135 3137 3138 3141 3144 3146 3147 3149 3151 3153 3154 3155
3138 3138 3140 3140 3140 3140 3139 3139 3139 3139 3137 3137 3136 3135 3133 3131 3131 3130 3130 3129 3129 3128 3128 3128 3128 3128 3129 3130 3131 3132 3133 3133 3135 3137 3139 3141 3143 3145 3146 3148 3149 3150 3151
3135 3136 3137 3138 3138 3139 3139 3138 3138 3136 3136 3135 3132 3133 3133 3131 3130 3129 3129 3130 3129 3129 3128 3128 3127 3128 3129 3129 3130 3131 3132 3133 3134 3133 3135 3136 3138 3140 3142 3143 3143 3145 3146
3132 3134 3134 3135 3135 3136 3136 3135 3135 3135 3133 3132 3131 3130 3131 3131 3129 3128 3128 3129 3129 3128 3128 3128 3128 3128 3128 3128 3129 3130 3131 3132 3133 3133 3134 3135 3136 3137 3137 3138 3139 3141 3143
3128 3130 3130 3131 3132 3133 3134 3134 3132 3130 3129 3128 3128 3127 3128 3128 3127 3127 3127 3127 3129 3129 3129 3128 3128 3128 3128 3128 3128 3128 3129 3130 3131 3132 3133 3134 3133 3134 3135 3137 3138 3139 3140
3125 3126 3128 3129 3129 3130 3130 3129 3127 3125 3124 3123 3123 3123 3123 3124 3125 3126 3125 3127 3128 3129 3130 3129 3128 3128 3127 3127 3127 3128 3129 3129 3129 3130 3130 3130 3131 3132 3134 3134 3135 3136 3137
3122 3123 3124 3125 3126 3126 3124 3122 3120 3118 3117 3116 3118 3117 3119 3122 3123 3124 3125 3125 3126 3127 3128 3127 3126 3126 3126 3125 3125 3125 3125 3126 3126 3127 3128 3128 3129 3130 3131 3131 3132 3132 3132
3118 3119 3120 3121 3121 3120 3118 3116 3113 3111 3110 3111 3113 3115 3117 3119 3120 3121 3122 3122 3124 3123 3124 3124 3124 3123 3124 3123 3122 3122 3124 3124 3124 3124 3124 3125 3126 3126 3126 3127 3126 3126 3125
3114 3115 3116 3116 3116 3114 3112 3110 3107 3106 3106 3107 3108 3111 3114 3116 3117 3118 3119 3119 3120 3120 3120 3120 3119 3118 3120 3119 3120 3119 3119 3119 3119 3119 3119 3120 3121 3120 3120 3120 3119 3119 3117
3111 3111 3111 3111 3110 3108 3105 3104 3103 3103 3104 3105 3106 3108 3110 3113 3114 3115 3115 3115 3115 3116 3116 3115 3117 3116 3116 3116 3115 3115 3115 3114 3114 3114 3114 3115 3114 3112 3112 3111 3110 3109 3108
3107 3106 3106 3106 3104 3102 3101 3100 3101 3102 3103 3104 3105 3106 3108 3109 3109 3110 3111 3112 3112 3112 3113 3113 3113 3113 3113 3113 3112 3112 3111 3110 3109 3108 3108 3108 3107 3107 3105 3104 3104 3103 3101
3102 3102 3102 3101 3100 3099 3099 3099 3100 3101 3102 3103 3103 3104 3105 3106 3107 3107 3108 3109 3109 3110 3110 3109 3109 3110 3111 3110 3109 3108 3107 3106 3105 3105 3104 3103 3102 3100 3099 3098 3097 3095 3094
3098 3098 3097 3097 3098 3099 3099 3100 3100 3101 3102 3103 3103 3103 3104 3104 3105 3106 3106 3107 3108 3107 3107 3108 3107 3107 3107 3107 3106 3105 3104 3103 3102 3100 3099 3098 3096 3095 3093 3091 3088 3087 3087